Voltar ao catálogo

FENGYUN 1C DEB

AtivoSSO
NORAD 30523·DEBRIS·🇨🇳 China

Lançado May 10, 1999 de Taiyuan Satellite Launch Center

Loading…

Próximas Passagens (próximas 24 horas)

TLE

AtualizadoSource: Space-Track

Época: Sep 14, 2026, 04:35 UTC

1 30523U 99025AJM 26257.19128271  .00000657  00000-0  20644-3 0  9998
2 30523  98.4973 233.0284 0242411  18.4348 355.0081 14.28335677 20324

Acompanhe FENGYUN 1C DEB em tempo real com AllMySat

Download on the App Store